Showing default

SHIYAN 27C, 63601

Orbit data source: Space-Track

SHIYAN 27C, 63601 is a payload satellite owned by CAST (CN) in SSO that was launched on Fri, 18 Apr 2025 UTC via a CHANG ZHENG 6A launch vehicle from the Taiyaun Space Center, China (TSC). Payload-class satellites include a variety of spacecraft equipped with specific instruments for various scientific and technological missions. These include communications satellites like Starlink; space stations such as the ISS; scientific satellites like the Hubble; Earth observation satellites from companies like Planet Labs, Umbra, and HawkEye 360; GPS; miniature CubeSats for education and research; and military/defense satellites.

Loading next visibility...
Identifier
63601, 2025-078C
Orbit
SSO
Country
Flag of CNCN / PRC
Related business
Manufacturer
CAST
Mission
Operational Defense Radar Imaging
Bus & Motor
SW27, Unknown motor
Mass
300 kg wet, ~300 kg dry
Launch date (UTC)
2025-04-18 (5 months ago)
Launch vehicle
CHANG ZHENG 6A
Launch site
Taiyaun Space Center, China (TSC)
Object type
Payload
Rocket body
Debris
Shape & HBR
Box + 1 Pan, 5.0 m
Radar Cross Section
13.200 m², Large (>1 m²)

Expand to show TLE details & history
Last TLE update: 8 hours ago

TLE from 8 hours ago
0 SHIYAN 27C
1 63601U 25078C   25259.30044025  .00000027  00000-0  99825-4 0  9995
2 63601  99.6956 265.6881 0000883  78.6567 281.4671 13.57214580 20384
Epoch: 2025-09-16T07:12Z
TLE epoch observation values (Epoch: 2025-09-16T07:12:38.037Z)
Latitude
0.00002°
Longitude
162.03689°
Altitude
1,048.498 km
Speed
7.328 km/s
True Right ascension
17h 42m 45s
True Declination
0° 00' 00"
Sunlit
Object was in daylight at epoch
Visualization orbit readout
Latitude
Unknown
Longitude
Unknown
Altitude
Unknown
Speed
Unknown
Apparent Right ascension
Unknown
Apparent Declination
Unknown
Sunlit
N/A
Visualization observer readout
Local Sidereal Time
08:02:18
Azimuth
Unknown
Elevation
Unknown
Doppler factor
Unknown
Orbital elements
Apogee altitude
1,043.779 km
Perigee altitude
1,042.468 km
Semi-major axis
7,421.261 km
Eccentricity
0.00009
Inclination
99.6956°
RAAN
265.6881°
Arg. of periapsis
78.6567°
True anomaly
281.45718°
Mean anomaly
281.4671°
Eccentric anomaly
281.46214°
Mean motion
3.3949 °/min
Orbital period
106.04 mins
BSTAR
0.000099825
Loading maneuver chart data...
Computing Atmospheric mass density...
Loading historical data...
Loading historical data...
Loading historical data...
Loading historical data...
Loading historical data...
Loading historical data...
Loading historical data...

Documentation

Showing up to 5 results
|